Location: U-46 Planetarium
(42.0300°N, 88.2740°W)
Time: 13:20:44
(UTC-05:00)

ATLAS 3B R/B - Pass Details

Date: 16 December 2017
Orbit: 1014 x 1181 km, 63.8° (Epoch: 06 April)

Event Time Altitude Azimuth Distance (km) Brightness Sun altitude
Rises 17:10:04 0° 325° (NW) 3,835 5.8 -8.6°
Reaches altitude 10° 17:12:44 10° 327° (NNW) 2,858 5.1 -9.1°
Maximum altitude 17:19:28 81° 55° (NE) 1,040 2.6 -10.2°
Drops below altitude 10° 17:26:01 10° 143° (SE) 2,788 4.7 -11.4°
Sets 17:28:35 0° 144° (SE) 3,735 5.4 -11.8°
